Year,Month,Day,Hour,Minute,Value (Times are PST for insolation in W/m^2)
2008,02,02,00,00,0.00
2008,02,02,00,01,0.00
2008,02,02,00,02,0.00
2008,02,02,00,03,0.00
2008,02,02,00,04,0.00
2008,02,02,00,05,0.00
2008,02,02,00,06,0.00
2008,02,02,00,07,0.00
2008,02,02,00,08,0.00
2008,02,02,00,09,0.00
2008,02,02,00,10,0.00
2008,02,02,00,11,0.00
2008,02,02,00,12,0.00
2008,02,02,00,13,0.00
2008,02,02,00,14,0.00
2008,02,02,00,15,0.00
2008,02,02,00,16,0.00
2008,02,02,00,17,0.00
2008,02,02,00,18,0.00
2008,02,02,00,19,0.00
2008,02,02,00,20,0.00
2008,02,02,00,21,0.00
2008,02,02,00,22,0.00
2008,02,02,00,23,0.00
2008,02,02,00,24,0.00
2008,02,02,00,25,0.00
2008,02,02,00,26,0.00
2008,02,02,00,27,0.00
2008,02,02,00,28,0.00
2008,02,02,00,29,0.00
2008,02,02,00,30,0.00
2008,02,02,00,31,0.00
2008,02,02,00,32,0.00
2008,02,02,00,33,0.00
2008,02,02,00,34,0.00
2008,02,02,00,35,0.00
2008,02,02,00,36,0.00
2008,02,02,00,37,0.00
2008,02,02,00,38,0.00
2008,02,02,00,39,0.00
2008,02,02,00,40,0.00
2008,02,02,00,41,0.00
2008,02,02,00,42,0.00
2008,02,02,00,43,0.00
2008,02,02,00,44,0.00
2008,02,02,00,45,0.00
2008,02,02,00,46,0.00
2008,02,02,00,47,0.00
2008,02,02,00,48,0.00
2008,02,02,00,49,0.00
2008,02,02,00,50,0.00
2008,02,02,00,51,0.00
2008,02,02,00,52,0.00
2008,02,02,00,53,0.00
2008,02,02,00,54,0.00
2008,02,02,00,55,0.00
2008,02,02,00,56,0.00
2008,02,02,00,57,0.00
2008,02,02,00,58,0.00
2008,02,02,00,59,0.00
2008,02,02,01,00,0.00
2008,02,02,01,01,0.00
2008,02,02,01,02,0.00
2008,02,02,01,03,0.00
2008,02,02,01,04,0.00
2008,02,02,01,05,0.00
2008,02,02,01,06,0.00
2008,02,02,01,07,0.00
2008,02,02,01,08,0.00
2008,02,02,01,09,0.00
2008,02,02,01,10,0.00
2008,02,02,01,11,0.00
2008,02,02,01,12,0.00
2008,02,02,01,13,0.00
2008,02,02,01,14,0.00
2008,02,02,01,15,0.00
2008,02,02,01,16,0.00
2008,02,02,01,17,0.00
2008,02,02,01,18,0.00
2008,02,02,01,19,0.00
2008,02,02,01,20,0.00
2008,02,02,01,21,0.00
2008,02,02,01,22,0.00
2008,02,02,01,23,0.00
2008,02,02,01,24,0.00
2008,02,02,01,25,0.00
2008,02,02,01,26,0.00
2008,02,02,01,27,0.00
2008,02,02,01,28,0.00
2008,02,02,01,29,0.00
2008,02,02,01,30,0.00
2008,02,02,01,31,0.00
2008,02,02,01,32,0.00
2008,02,02,01,33,0.00
2008,02,02,01,34,0.00
2008,02,02,01,35,0.00
2008,02,02,01,36,0.00
2008,02,02,01,37,0.00
2008,02,02,01,38,0.00
2008,02,02,01,39,0.00
2008,02,02,01,40,0.00
2008,02,02,01,41,0.00
2008,02,02,01,42,0.00
2008,02,02,01,43,0.00
2008,02,02,01,44,0.00
2008,02,02,01,45,0.00
2008,02,02,01,46,0.00
2008,02,02,01,47,0.00
2008,02,02,01,48,0.00
2008,02,02,01,49,0.00
2008,02,02,01,50,0.00
2008,02,02,01,51,0.00
2008,02,02,01,52,0.00
2008,02,02,01,53,0.00
2008,02,02,01,54,0.00
2008,02,02,01,55,0.00
2008,02,02,01,56,0.00
2008,02,02,01,57,0.00
2008,02,02,01,58,0.00
2008,02,02,01,59,0.00
2008,02,02,02,00,0.00
2008,02,02,02,01,0.00
2008,02,02,02,02,0.00
2008,02,02,02,03,0.00
2008,02,02,02,04,0.00
2008,02,02,02,05,0.00
2008,02,02,02,06,0.00
2008,02,02,02,07,0.00
2008,02,02,02,08,0.00
2008,02,02,02,09,0.00
2008,02,02,02,10,0.00
2008,02,02,02,11,0.00
2008,02,02,02,12,0.00
2008,02,02,02,13,0.00
2008,02,02,02,14,0.00
2008,02,02,02,15,0.00
2008,02,02,02,16,0.00
2008,02,02,02,17,0.00
2008,02,02,02,18,0.00
2008,02,02,02,19,0.00
2008,02,02,02,20,0.00
2008,02,02,02,21,0.00
2008,02,02,02,22,0.00
2008,02,02,02,23,0.00
2008,02,02,02,24,0.00
2008,02,02,02,25,0.00
2008,02,02,02,26,0.00
2008,02,02,02,27,0.00
2008,02,02,02,28,0.00
2008,02,02,02,29,0.00
2008,02,02,02,30,0.00
2008,02,02,02,31,0.00
2008,02,02,02,32,0.00
2008,02,02,02,33,0.00
2008,02,02,02,34,0.00
2008,02,02,02,35,0.00
2008,02,02,02,36,0.00
2008,02,02,02,37,0.00
2008,02,02,02,38,0.00
2008,02,02,02,39,0.00
2008,02,02,02,40,0.00
2008,02,02,02,41,0.00
2008,02,02,02,42,0.00
2008,02,02,02,43,0.00
2008,02,02,02,44,0.00
2008,02,02,02,45,0.00
2008,02,02,02,46,0.00
2008,02,02,02,47,0.00
2008,02,02,02,48,0.00
2008,02,02,02,49,0.00
2008,02,02,02,50,0.00
2008,02,02,02,51,0.00
2008,02,02,02,52,0.00
2008,02,02,02,53,0.00
2008,02,02,02,54,0.00
2008,02,02,02,55,0.00
2008,02,02,02,56,0.00
2008,02,02,02,57,0.00
2008,02,02,02,58,0.00
2008,02,02,02,59,0.00
2008,02,02,03,00,0.00
2008,02,02,03,01,0.00
2008,02,02,03,02,0.00
2008,02,02,03,03,0.00
2008,02,02,03,04,0.00
2008,02,02,03,05,0.00
2008,02,02,03,06,0.00
2008,02,02,03,07,0.00
2008,02,02,03,08,0.00
2008,02,02,03,09,0.00
2008,02,02,03,10,0.00
2008,02,02,03,11,0.00
2008,02,02,03,12,0.00
2008,02,02,03,13,0.00
2008,02,02,03,14,0.00
2008,02,02,03,15,0.00
2008,02,02,03,16,0.00
2008,02,02,03,17,0.00
2008,02,02,03,18,0.00
2008,02,02,03,19,0.00
2008,02,02,03,20,0.00
2008,02,02,03,21,0.00
2008,02,02,03,22,0.00
2008,02,02,03,23,0.00
2008,02,02,03,24,0.00
2008,02,02,03,25,0.00
2008,02,02,03,26,0.00
2008,02,02,03,27,0.00
2008,02,02,03,28,0.00
2008,02,02,03,29,0.00
2008,02,02,03,30,0.00
2008,02,02,03,31,0.00
2008,02,02,03,32,0.00
2008,02,02,03,33,0.00
2008,02,02,03,34,0.00
2008,02,02,03,35,0.00
2008,02,02,03,36,0.00
2008,02,02,03,37,0.00
2008,02,02,03,38,0.00
2008,02,02,03,39,0.00
2008,02,02,03,40,0.00
2008,02,02,03,41,0.00
2008,02,02,03,42,0.00
2008,02,02,03,43,0.00
2008,02,02,03,44,0.00
2008,02,02,03,45,0.00
2008,02,02,03,46,0.00
2008,02,02,03,47,0.00
2008,02,02,03,48,0.00
2008,02,02,03,49,0.00
2008,02,02,03,50,0.00
2008,02,02,03,51,0.00
2008,02,02,03,52,0.00
2008,02,02,03,53,0.00
2008,02,02,03,54,0.00
2008,02,02,03,55,0.00
2008,02,02,03,56,0.00
2008,02,02,03,57,0.00
2008,02,02,03,58,0.00
2008,02,02,03,59,0.00
2008,02,02,04,00,0.00
2008,02,02,04,01,0.00
2008,02,02,04,02,0.00
2008,02,02,04,03,0.00
2008,02,02,04,04,0.00
2008,02,02,04,05,0.00
2008,02,02,04,06,0.00
2008,02,02,04,07,0.00
2008,02,02,04,08,0.00
2008,02,02,04,09,0.00
2008,02,02,04,10,0.00
2008,02,02,04,11,0.00
2008,02,02,04,12,0.00
2008,02,02,04,13,0.00
2008,02,02,04,14,0.00
2008,02,02,04,15,0.00
2008,02,02,04,16,0.00
2008,02,02,04,17,0.00
2008,02,02,04,18,0.00
2008,02,02,04,19,0.00
2008,02,02,04,20,0.00
2008,02,02,04,21,0.00
2008,02,02,04,22,0.00
2008,02,02,04,23,0.00
2008,02,02,04,24,0.00
2008,02,02,04,25,0.00
2008,02,02,04,26,0.00
2008,02,02,04,27,0.00
2008,02,02,04,28,0.00
2008,02,02,04,29,0.00
2008,02,02,04,30,0.00
2008,02,02,04,31,0.00
2008,02,02,04,32,0.00
2008,02,02,04,33,0.00
2008,02,02,04,34,0.00
2008,02,02,04,35,0.00
2008,02,02,04,36,0.00
2008,02,02,04,37,0.00
2008,02,02,04,38,0.00
2008,02,02,04,39,0.00
2008,02,02,04,40,0.00
2008,02,02,04,41,0.00
2008,02,02,04,42,0.00
2008,02,02,04,43,0.00
2008,02,02,04,44,0.00
2008,02,02,04,45,0.00
2008,02,02,04,46,0.00
2008,02,02,04,47,0.00
2008,02,02,04,48,0.00
2008,02,02,04,49,0.00
2008,02,02,04,50,0.00
2008,02,02,04,51,0.00
2008,02,02,04,52,0.00
2008,02,02,04,53,0.00
2008,02,02,04,54,0.00
2008,02,02,04,55,0.00
2008,02,02,04,56,0.00
2008,02,02,04,57,0.00
2008,02,02,04,58,0.00
2008,02,02,04,59,0.00
2008,02,02,05,00,0.00
2008,02,02,05,01,0.00
2008,02,02,05,02,0.00
2008,02,02,05,03,0.00
2008,02,02,05,04,0.00
2008,02,02,05,05,0.00
2008,02,02,05,06,0.00
2008,02,02,05,07,0.00
2008,02,02,05,08,0.00
2008,02,02,05,09,0.00
2008,02,02,05,10,0.00
2008,02,02,05,11,0.00
2008,02,02,05,12,0.00
2008,02,02,05,13,0.00
2008,02,02,05,14,0.00
2008,02,02,05,15,0.00
2008,02,02,05,16,0.00
2008,02,02,05,17,0.00
2008,02,02,05,18,0.00
2008,02,02,05,19,0.00
2008,02,02,05,20,0.00
2008,02,02,05,21,0.00
2008,02,02,05,22,0.00
2008,02,02,05,23,0.00
2008,02,02,05,24,0.00
2008,02,02,05,25,0.00
2008,02,02,05,26,0.00
2008,02,02,05,27,0.00
2008,02,02,05,28,0.00
2008,02,02,05,29,0.00
2008,02,02,05,30,0.00
2008,02,02,05,31,0.00
2008,02,02,05,32,0.00
2008,02,02,05,33,0.00
2008,02,02,05,34,0.00
2008,02,02,05,35,0.00
2008,02,02,05,36,0.00
2008,02,02,05,37,0.00
2008,02,02,05,38,0.00
2008,02,02,05,39,0.00
2008,02,02,05,40,0.00
2008,02,02,05,41,0.00
2008,02,02,05,42,0.00
2008,02,02,05,43,0.00
2008,02,02,05,44,0.00
2008,02,02,05,45,0.00
2008,02,02,05,46,0.00
2008,02,02,05,47,0.00
2008,02,02,05,48,0.00
2008,02,02,05,49,0.00
2008,02,02,05,50,0.00
2008,02,02,05,51,0.00
2008,02,02,05,52,0.00
2008,02,02,05,53,0.00
2008,02,02,05,54,0.00
2008,02,02,05,55,0.00
2008,02,02,05,56,0.00
2008,02,02,05,57,0.00
2008,02,02,05,58,0.00
2008,02,02,05,59,0.00
2008,02,02,06,00,0.00
2008,02,02,06,01,0.00
2008,02,02,06,02,0.00
2008,02,02,06,03,0.00
2008,02,02,06,04,0.00
2008,02,02,06,05,0.00
2008,02,02,06,06,0.00
2008,02,02,06,07,0.00
2008,02,02,06,08,0.00
2008,02,02,06,09,0.00
2008,02,02,06,10,0.00
2008,02,02,06,11,0.00
2008,02,02,06,12,0.00
2008,02,02,06,13,0.00
2008,02,02,06,14,0.00
2008,02,02,06,15,0.00
2008,02,02,06,16,0.00
2008,02,02,06,17,0.00
2008,02,02,06,18,0.00
2008,02,02,06,19,0.00
2008,02,02,06,20,0.00
2008,02,02,06,21,0.00
2008,02,02,06,22,0.00
2008,02,02,06,23,0.00
2008,02,02,06,24,0.00
2008,02,02,06,25,0.00
2008,02,02,06,26,0.00
2008,02,02,06,27,0.00
2008,02,02,06,28,0.00
2008,02,02,06,29,0.00
2008,02,02,06,30,0.00
2008,02,02,06,31,0.00
2008,02,02,06,32,0.00
2008,02,02,06,33,0.00
2008,02,02,06,34,0.00
2008,02,02,06,35,0.00
2008,02,02,06,36,0.00
2008,02,02,06,37,0.00
2008,02,02,06,38,0.00
2008,02,02,06,39,0.00
2008,02,02,06,40,0.00
2008,02,02,06,41,0.00
2008,02,02,06,42,0.00
2008,02,02,06,43,0.00
2008,02,02,06,44,0.00
2008,02,02,06,45,0.00
2008,02,02,06,46,0.00
2008,02,02,06,47,0.00
2008,02,02,06,48,0.00
2008,02,02,06,49,0.00
2008,02,02,06,50,0.00
2008,02,02,06,51,0.00
2008,02,02,06,52,0.00
2008,02,02,06,53,0.00
2008,02,02,06,54,0.00
2008,02,02,06,55,0.00
2008,02,02,06,56,0.00
2008,02,02,06,57,0.00
2008,02,02,06,58,0.00
2008,02,02,06,59,0.00
2008,02,02,07,00,0.00
2008,02,02,07,01,0.00
2008,02,02,07,02,0.00
2008,02,02,07,03,0.00
2008,02,02,07,04,0.00
2008,02,02,07,05,0.00
2008,02,02,07,06,0.00
2008,02,02,07,07,0.00
2008,02,02,07,08,0.00
2008,02,02,07,09,0.00
2008,02,02,07,10,0.00
2008,02,02,07,11,0.00
2008,02,02,07,12,0.00
2008,02,02,07,13,0.00
2008,02,02,07,14,0.00
2008,02,02,07,15,0.00
2008,02,02,07,16,0.00
2008,02,02,07,17,0.00
2008,02,02,07,18,0.00
2008,02,02,07,19,0.00
2008,02,02,07,20,0.00
2008,02,02,07,21,0.00
2008,02,02,07,22,0.00
2008,02,02,07,23,0.00
2008,02,02,07,24,0.00
2008,02,02,07,25,0.00
2008,02,02,07,26,0.00
2008,02,02,07,27,0.00
2008,02,02,07,28,0.00
2008,02,02,07,29,0.00
2008,02,02,07,30,0.00
2008,02,02,07,31,0.00
2008,02,02,07,32,0.00
2008,02,02,07,33,0.00
2008,02,02,07,34,0.00
2008,02,02,07,35,0.00
2008,02,02,07,36,0.00
2008,02,02,07,37,0.00
2008,02,02,07,38,0.00
2008,02,02,07,39,0.00
2008,02,02,07,40,0.00
2008,02,02,07,41,0.00
2008,02,02,07,42,0.00
2008,02,02,07,43,0.00
2008,02,02,07,44,0.00
2008,02,02,07,45,0.00
2008,02,02,07,46,0.00
2008,02,02,07,47,0.00
2008,02,02,07,48,0.00
2008,02,02,07,49,0.00
2008,02,02,07,50,0.00
2008,02,02,07,51,0.00
2008,02,02,07,52,0.00
2008,02,02,07,53,0.00
2008,02,02,07,54,0.00
2008,02,02,07,55,0.00
2008,02,02,07,56,0.00
2008,02,02,07,57,0.00
2008,02,02,07,58,0.00
2008,02,02,07,59,0.00
2008,02,02,08,00,0.00
2008,02,02,08,01,0.00
2008,02,02,08,02,0.00
2008,02,02,08,03,1.50
2008,02,02,08,04,5.00
2008,02,02,08,05,5.00
2008,02,02,08,06,5.00
2008,02,02,08,07,5.00
2008,02,02,08,08,6.70
2008,02,02,08,09,7.10
2008,02,02,08,10,9.00
2008,02,02,08,11,9.00
2008,02,02,08,12,9.00
2008,02,02,08,13,9.90
2008,02,02,08,14,11.00
2008,02,02,08,15,11.70
2008,02,02,08,16,12.00
2008,02,02,08,17,12.00
2008,02,02,08,18,14.00
2008,02,02,08,19,14.30
2008,02,02,08,20,16.00
2008,02,02,08,21,16.80
2008,02,02,08,22,18.00
2008,02,02,08,23,18.00
2008,02,02,08,24,18.70
2008,02,02,08,25,19.00
2008,02,02,08,26,20.80
2008,02,02,08,27,21.00
2008,02,02,08,28,21.50
2008,02,02,08,29,23.00
2008,02,02,08,30,23.80
2008,02,02,08,31,25.00
2008,02,02,08,32,25.60
2008,02,02,08,33,26.00
2008,02,02,08,34,27.70
2008,02,02,08,35,28.00
2008,02,02,08,36,28.30
2008,02,02,08,37,30.00
2008,02,02,08,38,30.80
2008,02,02,08,39,32.00
2008,02,02,08,40,32.00
2008,02,02,08,41,32.70
2008,02,02,08,42,33.00
2008,02,02,08,43,34.80
2008,02,02,08,44,35.00
2008,02,02,08,45,35.40
2008,02,02,08,46,37.00
2008,02,02,08,47,37.00
2008,02,02,08,48,38.00
2008,02,02,08,49,39.00
2008,02,02,08,50,39.00
2008,02,02,08,51,39.80
2008,02,02,08,52,40.00
2008,02,02,08,53,40.30
2008,02,02,08,54,42.00
2008,02,02,08,55,42.70
2008,02,02,08,56,44.00
2008,02,02,08,57,44.00
2008,02,02,08,58,44.00
2008,02,02,08,59,45.50
2008,02,02,09,00,46.80
2008,02,02,09,01,47.20
2008,02,02,09,02,49.00
2008,02,02,09,03,49.00
2008,02,02,09,04,49.80
2008,02,02,09,05,51.00
2008,02,02,09,06,51.00
2008,02,02,09,07,52.40
2008,02,02,09,08,53.00
2008,02,02,09,09,53.00
2008,02,02,09,10,53.00
2008,02,02,09,11,53.20
2008,02,02,09,12,54.00
2008,02,02,09,13,54.00
2008,02,02,09,14,55.10
2008,02,02,09,15,56.00
2008,02,02,09,16,56.00
2008,02,02,09,17,56.00
2008,02,02,09,18,56.00
2008,02,02,09,19,56.00
2008,02,02,09,20,57.00
2008,02,02,09,21,60.70
2008,02,02,09,22,62.00
2008,02,02,09,23,62.00
2008,02,02,09,24,62.00
2008,02,02,09,25,62.00
2008,02,02,09,26,62.00
2008,02,02,09,27,65.20
2008,02,02,09,28,67.00
2008,02,02,09,29,67.00
2008,02,02,09,30,66.20
2008,02,02,09,31,66.00
2008,02,02,09,32,70.00
2008,02,02,09,33,76.90
2008,02,02,09,34,79.00
2008,02,02,09,35,72.70
2008,02,02,09,36,77.10
2008,02,02,09,37,85.50
2008,02,02,09,38,95.00
2008,02,02,09,39,92.80
2008,02,02,09,40,79.00
2008,02,02,09,41,70.00
2008,02,02,09,42,79.80
2008,02,02,09,43,94.90
2008,02,02,09,44,95.90
2008,02,02,09,45,82.60
2008,02,02,09,46,66.90
2008,02,02,09,47,60.40
2008,02,02,09,48,61.50
2008,02,02,09,49,65.00
2008,02,02,09,50,65.00
2008,02,02,09,51,89.00
2008,02,02,09,52,137.30
2008,02,02,09,53,164.20
2008,02,02,09,54,136.20
2008,02,02,09,55,120.20
2008,02,02,09,56,102.30
2008,02,02,09,57,105.50
2008,02,02,09,58,145.30
2008,02,02,09,59,188.70
2008,02,02,10,00,218.20
2008,02,02,10,01,228.70
2008,02,02,10,02,219.70
2008,02,02,10,03,218.60
2008,02,02,10,04,212.60
2008,02,02,10,05,183.60
2008,02,02,10,06,162.70
2008,02,02,10,07,172.20
2008,02,02,10,08,201.80
2008,02,02,10,09,150.60
2008,02,02,10,10,89.90
2008,02,02,10,11,68.20
2008,02,02,10,12,70.60
2008,02,02,10,13,123.20
2008,02,02,10,14,189.00
2008,02,02,10,15,229.60
2008,02,02,10,16,239.50
2008,02,02,10,17,243.40
2008,02,02,10,18,245.90
2008,02,02,10,19,248.20
2008,02,02,10,20,250.20
2008,02,02,10,21,251.70
2008,02,02,10,22,253.80
2008,02,02,10,23,255.00
2008,02,02,10,24,256.30
2008,02,02,10,25,257.70
2008,02,02,10,26,259.70
2008,02,02,10,27,262.00
2008,02,02,10,28,264.10
2008,02,02,10,29,265.50
2008,02,02,10,30,267.00
2008,02,02,10,31,268.00
2008,02,02,10,32,270.20
2008,02,02,10,33,271.70
2008,02,02,10,34,273.50
2008,02,02,10,35,275.80
2008,02,02,10,36,276.20
2008,02,02,10,37,279.80
2008,02,02,10,38,284.30
2008,02,02,10,39,286.20
2008,02,02,10,40,289.50
2008,02,02,10,41,294.00
2008,02,02,10,42,136.50
2008,02,02,10,43,79.10
2008,02,02,10,44,81.00
2008,02,02,10,45,299.40
2008,02,02,10,46,295.80
2008,02,02,10,47,309.90
2008,02,02,10,48,297.70
2008,02,02,10,49,253.10
2008,02,02,10,50,269.10
2008,02,02,10,51,337.50
2008,02,02,10,52,359.00
2008,02,02,10,53,342.00
2008,02,02,10,54,310.10
2008,02,02,10,55,161.30
2008,02,02,10,56,123.50
2008,02,02,10,57,146.00
2008,02,02,10,58,179.90
2008,02,02,10,59,193.00
2008,02,02,11,00,318.20
2008,02,02,11,01,307.80
2008,02,02,11,02,271.00
2008,02,02,11,03,313.40
2008,02,02,11,04,483.00
2008,02,02,11,05,483.00
2008,02,02,11,06,423.00
2008,02,02,11,07,369.00
2008,02,02,11,08,245.10
2008,02,02,11,09,192.00
2008,02,02,11,10,192.00
2008,02,02,11,11,492.50
2008,02,02,11,12,498.00
2008,02,02,11,13,501.00
2008,02,02,11,14,495.80
2008,02,02,11,15,497.10
2008,02,02,11,16,506.00
2008,02,02,11,17,511.60
2008,02,02,11,18,513.00
2008,02,02,11,19,236.50
2008,02,02,11,20,221.90
2008,02,02,11,21,233.00
2008,02,02,11,22,239.20
2008,02,02,11,23,246.00
2008,02,02,11,24,252.20
2008,02,02,11,25,237.20
2008,02,02,11,26,205.00
2008,02,02,11,27,196.80
2008,02,02,11,28,189.30
2008,02,02,11,29,183.60
2008,02,02,11,30,185.60
2008,02,02,11,31,185.00
2008,02,02,11,32,187.60
2008,02,02,11,33,190.00
2008,02,02,11,34,188.50
2008,02,02,11,35,183.80
2008,02,02,11,36,163.40
2008,02,02,11,37,151.80
2008,02,02,11,38,158.20
2008,02,02,11,39,167.40
2008,02,02,11,40,169.10
2008,02,02,11,41,165.90
2008,02,02,11,42,166.30
2008,02,02,11,43,165.40
2008,02,02,11,44,159.00
2008,02,02,11,45,147.30
2008,02,02,11,46,133.00
2008,02,02,11,47,124.40
2008,02,02,11,48,123.00
2008,02,02,11,49,127.70
2008,02,02,11,50,138.00
2008,02,02,11,51,146.20
2008,02,02,11,52,148.80
2008,02,02,11,53,151.10
2008,02,02,11,54,158.00
2008,02,02,11,55,184.50
2008,02,02,11,56,228.20
2008,02,02,11,57,267.60
2008,02,02,11,58,271.20
2008,02,02,11,59,242.30
2008,02,02,12,00,215.60
2008,02,02,12,01,207.30
2008,02,02,12,02,250.70
2008,02,02,12,03,292.40
2008,02,02,12,04,454.20
2008,02,02,12,05,452.20
2008,02,02,12,06,432.00
2008,02,02,12,07,409.20
2008,02,02,12,08,450.10
2008,02,02,12,09,539.80
2008,02,02,12,10,561.00
2008,02,02,12,11,561.00
2008,02,02,12,12,561.00
2008,02,02,12,13,449.70
2008,02,02,12,14,190.80
2008,02,02,12,15,184.60
2008,02,02,12,16,155.80
2008,02,02,12,17,136.80
2008,02,02,12,18,131.00
2008,02,02,12,19,125.20
2008,02,02,12,20,123.30
2008,02,02,12,21,125.80
2008,02,02,12,22,130.10
2008,02,02,12,23,136.20
2008,02,02,12,24,141.90
2008,02,02,12,25,145.30
2008,02,02,12,26,146.00
2008,02,02,12,27,146.00
2008,02,02,12,28,145.80
2008,02,02,12,29,140.20
2008,02,02,12,30,119.00
2008,02,02,12,31,99.80
2008,02,02,12,32,89.60
2008,02,02,12,33,85.00
2008,02,02,12,34,77.80
2008,02,02,12,35,71.20
2008,02,02,12,36,65.50
2008,02,02,12,37,59.40
2008,02,02,12,38,53.00
2008,02,02,12,39,48.00
2008,02,02,12,40,45.20
2008,02,02,12,41,41.80
2008,02,02,12,42,40.00
2008,02,02,12,43,45.20
2008,02,02,12,44,53.00
2008,02,02,12,45,63.10
2008,02,02,12,46,75.40
2008,02,02,12,47,84.80
2008,02,02,12,48,91.80
2008,02,02,12,49,95.00
2008,02,02,12,50,95.00
2008,02,02,12,51,95.00
2008,02,02,12,52,95.00
2008,02,02,12,53,96.70
2008,02,02,12,54,102.20
2008,02,02,12,55,105.80
2008,02,02,12,56,110.30
2008,02,02,12,57,113.40
2008,02,02,12,58,116.00
2008,02,02,12,59,119.90
2008,02,02,13,00,120.30
2008,02,02,13,01,116.80
2008,02,02,13,02,109.20
2008,02,02,13,03,99.30
2008,02,02,13,04,91.80
2008,02,02,13,05,86.30
2008,02,02,13,06,81.10
2008,02,02,13,07,77.90
2008,02,02,13,08,77.00
2008,02,02,13,09,77.00
2008,02,02,13,10,74.30
2008,02,02,13,11,72.10
2008,02,02,13,12,72.40
2008,02,02,13,13,76.40
2008,02,02,13,14,85.40
2008,02,02,13,15,93.20
2008,02,02,13,16,101.10
2008,02,02,13,17,109.80
2008,02,02,13,18,120.50
2008,02,02,13,19,133.80
2008,02,02,13,20,146.80
2008,02,02,13,21,150.40
2008,02,02,13,22,145.60
2008,02,02,13,23,136.40
2008,02,02,13,24,130.00
2008,02,02,13,25,126.80
2008,02,02,13,26,127.20
2008,02,02,13,27,133.10
2008,02,02,13,28,125.30
2008,02,02,13,29,123.60
2008,02,02,13,30,129.10
2008,02,02,13,31,154.90
2008,02,02,13,32,182.60
2008,02,02,13,33,185.30
2008,02,02,13,34,231.60
2008,02,02,13,35,306.30
2008,02,02,13,36,323.00
2008,02,02,13,37,162.70
2008,02,02,13,38,147.20
2008,02,02,13,39,144.50
2008,02,02,13,40,148.40
2008,02,02,13,41,159.00
2008,02,02,13,42,180.00
2008,02,02,13,43,246.70
2008,02,02,13,44,271.00
2008,02,02,13,45,172.90
2008,02,02,13,46,217.70
2008,02,02,13,47,163.90
2008,02,02,13,48,168.10
2008,02,02,13,49,203.60
2008,02,02,13,50,246.00
2008,02,02,13,51,240.50
2008,02,02,13,52,232.90
2008,02,02,13,53,220.50
2008,02,02,13,54,183.50
2008,02,02,13,55,158.30
2008,02,02,13,56,166.50
2008,02,02,13,57,184.20
2008,02,02,13,58,171.50
2008,02,02,13,59,164.90
2008,02,02,14,00,174.80
2008,02,02,14,01,167.00
2008,02,02,14,02,155.80
2008,02,02,14,03,155.50
2008,02,02,14,04,161.00
2008,02,02,14,05,166.30
2008,02,02,14,06,169.00
2008,02,02,14,07,167.90
2008,02,02,14,08,164.60
2008,02,02,14,09,157.80
2008,02,02,14,10,145.90
2008,02,02,14,11,135.00
2008,02,02,14,12,126.10
2008,02,02,14,13,120.80
2008,02,02,14,14,119.30
2008,02,02,14,15,117.10
2008,02,02,14,16,114.80
2008,02,02,14,17,114.00
2008,02,02,14,18,111.80
2008,02,02,14,19,109.30
2008,02,02,14,20,107.00
2008,02,02,14,21,105.00
2008,02,02,14,22,106.20
2008,02,02,14,23,111.80
2008,02,02,14,24,110.50
2008,02,02,14,25,100.80
2008,02,02,14,26,102.10
2008,02,02,14,27,96.80
2008,02,02,14,28,93.20
2008,02,02,14,29,89.20
2008,02,02,14,30,111.60
2008,02,02,14,31,146.00
2008,02,02,14,32,148.80
2008,02,02,14,33,224.10
2008,02,02,14,34,217.10
2008,02,02,14,35,252.90
2008,02,02,14,36,317.60
2008,02,02,14,37,302.80
2008,02,02,14,38,236.40
2008,02,02,14,39,295.20
2008,02,02,14,40,285.10
2008,02,02,14,41,228.90
2008,02,02,14,42,220.00
2008,02,02,14,43,136.00
2008,02,02,14,44,120.00
2008,02,02,14,45,125.00
2008,02,02,14,46,257.80
2008,02,02,14,47,256.50
2008,02,02,14,48,263.50
2008,02,02,14,49,270.80
2008,02,02,14,50,285.00
2008,02,02,14,51,277.60
2008,02,02,14,52,280.60
2008,02,02,14,53,298.20
2008,02,02,14,54,253.40
2008,02,02,14,55,236.40
2008,02,02,14,56,211.50
2008,02,02,14,57,189.90
2008,02,02,14,58,144.10
2008,02,02,14,59,127.00
2008,02,02,15,00,109.40
2008,02,02,15,01,100.00
2008,02,02,15,02,86.40
2008,02,02,15,03,83.20
2008,02,02,15,04,84.60
2008,02,02,15,05,88.80
2008,02,02,15,06,91.80
2008,02,02,15,07,93.00
2008,02,02,15,08,94.10
2008,02,02,15,09,96.90
2008,02,02,15,10,101.20
2008,02,02,15,11,100.20
2008,02,02,15,12,97.00
2008,02,02,15,13,95.50
2008,02,02,15,14,90.00
2008,02,02,15,15,90.00
2008,02,02,15,16,90.00
2008,02,02,15,17,90.00
2008,02,02,15,18,90.00
2008,02,02,15,19,88.40
2008,02,02,15,20,84.20
2008,02,02,15,21,80.40
2008,02,02,15,22,75.80
2008,02,02,15,23,70.90
2008,02,02,15,24,67.20
2008,02,02,15,25,65.00
2008,02,02,15,26,66.30
2008,02,02,15,27,69.20
2008,02,02,15,28,73.40
2008,02,02,15,29,76.90
2008,02,02,15,30,80.10
2008,02,02,15,31,91.40
2008,02,02,15,32,102.50
2008,02,02,15,33,101.00
2008,02,02,15,34,102.00
2008,02,02,15,35,103.40
2008,02,02,15,36,104.80
2008,02,02,15,37,105.00
2008,02,02,15,38,105.20
2008,02,02,15,39,109.70
2008,02,02,15,40,116.20
2008,02,02,15,41,106.90
2008,02,02,15,42,101.80
2008,02,02,15,43,118.90
2008,02,02,15,44,130.00
2008,02,02,15,45,102.80
2008,02,02,15,46,93.30
2008,02,02,15,47,87.40
2008,02,02,15,48,83.20
2008,02,02,15,49,79.20
2008,02,02,15,50,71.90
2008,02,02,15,51,62.90
2008,02,02,15,52,54.20
2008,02,02,15,53,45.80
2008,02,02,15,54,39.80
2008,02,02,15,55,36.90
2008,02,02,15,56,35.00
2008,02,02,15,57,34.40
2008,02,02,15,58,33.00
2008,02,02,15,59,33.00
2008,02,02,16,00,33.00
2008,02,02,16,01,33.00
2008,02,02,16,02,33.00
2008,02,02,16,03,33.00
2008,02,02,16,04,32.00
2008,02,02,16,05,35.60
2008,02,02,16,06,56.00
2008,02,02,16,07,71.90
2008,02,02,16,08,100.20
2008,02,02,16,09,107.70
2008,02,02,16,10,112.50
2008,02,02,16,11,129.60
2008,02,02,16,12,134.80
2008,02,02,16,13,133.40
2008,02,02,16,14,129.20
2008,02,02,16,15,126.30
2008,02,02,16,16,124.10
2008,02,02,16,17,121.30
2008,02,02,16,18,108.00
2008,02,02,16,19,64.10
2008,02,02,16,20,38.70
2008,02,02,16,21,30.00
2008,02,02,16,22,30.00
2008,02,02,16,23,30.00
2008,02,02,16,24,30.00
2008,02,02,16,25,30.00
2008,02,02,16,26,31.20
2008,02,02,16,27,34.20
2008,02,02,16,28,38.20
2008,02,02,16,29,41.70
2008,02,02,16,30,42.60
2008,02,02,16,31,46.20
2008,02,02,16,32,48.30
2008,02,02,16,33,51.90
2008,02,02,16,34,53.50
2008,02,02,16,35,55.40
2008,02,02,16,36,59.20
2008,02,02,16,37,64.20
2008,02,02,16,38,70.20
2008,02,02,16,39,71.50
2008,02,02,16,40,65.80
2008,02,02,16,41,52.20
2008,02,02,16,42,42.50
2008,02,02,16,43,34.80
2008,02,02,16,44,27.80
2008,02,02,16,45,22.10
2008,02,02,16,46,19.20
2008,02,02,16,47,18.10
2008,02,02,16,48,19.00
2008,02,02,16,49,18.70
2008,02,02,16,50,18.00
2008,02,02,16,51,18.00
2008,02,02,16,52,16.80
2008,02,02,16,53,16.00
2008,02,02,16,54,16.00
2008,02,02,16,55,15.90
2008,02,02,16,56,14.00
2008,02,02,16,57,14.00
2008,02,02,16,58,13.30
2008,02,02,16,59,12.00
2008,02,02,17,00,12.00
2008,02,02,17,01,11.30
2008,02,02,17,02,11.00
2008,02,02,17,03,11.00
2008,02,02,17,04,9.00
2008,02,02,17,05,8.70
2008,02,02,17,06,7.00
2008,02,02,17,07,7.00
2008,02,02,17,08,7.00
2008,02,02,17,09,7.00
2008,02,02,17,10,5.60
2008,02,02,17,11,5.00
2008,02,02,17,12,5.00
2008,02,02,17,13,5.00
2008,02,02,17,14,5.00
2008,02,02,17,15,5.00
2008,02,02,17,16,2.60
2008,02,02,17,17,0.00
2008,02,02,17,18,0.00
2008,02,02,17,19,0.00
2008,02,02,17,20,0.00
2008,02,02,17,21,0.00
2008,02,02,17,22,0.00
2008,02,02,17,23,0.00
2008,02,02,17,24,0.00
2008,02,02,17,25,0.00
2008,02,02,17,26,0.00
2008,02,02,17,27,0.00
2008,02,02,17,28,0.00
2008,02,02,17,29,0.00